WP3OF-1 Weather Reports


time (UTC)temp
C
wind
direction
speed
KPH
gust
KPH
rain 1hr
cm
rain 24hr
cm
rain mn
cm
humidity
%
barometer
mb
20260505113512 26 112 17.7 25.7 0.00 0.05 0.05 87 1018.0
20260505113008 26 110 12.9 16.1 0.00 0.05 0.05 86 1017.9
20260505112504 26 113 9.7 17.7 0.00 0.05 0.05 86 1018.0
20260505112002 26 112 9.7 14.5 0.00 0.05 0.05 87 1017.8
20260505111456 26 103 19.3 25.7 0.00 0.05 0.05 87 1017.8
20260505110952 26 118 12.9 22.5 0.00 0.05 0.05 87 1017.5
20260505110449 25 101 6.4 14.5 0.00 0.05 0.05 89 1017.4
20260505101915 24 114 9.7 12.9 0.00 0.05 0.05 92 1016.8
20260505101414 24 95 11.3 12.9 0.00 0.05 0.05 93 1017.0
20260505100911 24 95 11.3 12.9 0.00 0.05 0.05 93 1016.8
20260505100408 24 89 9.7 12.9 0.00 0.05 0.05 92 1016.7
20260505095903 24 98 12.9 14.5 0.00 0.05 0.05 92 1016.7
20260505095400 25 90 9.7 14.5 0.00 0.05 0.05 92 1016.8
20260505094856 25 95 12.9 16.1 0.00 0.05 0.05 92 1017.0
20260505094354 24 89 9.7 12.9 0.00 0.05 0.05 92 1016.8
20260505093849 24 107 9.7 14.5 0.00 0.05 0.05 92 1017.1
20260505093347 24 81 9.7 14.5 0.00 0.05 0.05 92 1016.9
20260505092844 24 108 9.7 12.9 0.00 0.05 0.05 92 1016.8
20260505092342 24 82 9.7 12.9 0.00 0.05 0.05 92 1016.6
20260505091839 24 93 9.7 14.5 0.00 0.05 0.05 92 1016.7
20260505091337 25 90 9.7 12.9 0.00 0.05 0.05 91 1016.8
20260505090835 25 94 12.9 20.9 0.00 0.05 0.05 91 1016.4
20260505090333 25 96 16.1 17.7 0.00 0.05 0.05 91 1016.5
20260505085830 25 86 14.5 16.1 0.00 0.05 0.05 91 1016.3
20260505085327 25 93 14.5 16.1 0.00 0.05 0.05 91 1016.3
20260505084825 25 102 17.7 20.9 0.00 0.05 0.05 91 1016.4
20260505084323 25 105 16.1 22.5 0.00 0.05 0.05 91 1016.3
20260505083820 24 110 17.7 20.9 0.00 0.05 0.05 91 1016.4
20260505083318 24 105 12.9 20.9 0.00 0.05 0.05 91 1016.6
20260505082814 25 98 17.7 24.1 0.00 0.05 0.05 91 1016.5
20260505082311 25 111 17.7 22.5 0.00 0.05 0.05 92 1016.3
20260505081807 25 112 14.5 16.1 0.00 0.05 0.05 92 1016.4
20260505081304 25 101 14.5 20.9 0.00 0.05 0.05 92 1015.9
20260505080800 25 93 16.1 17.7 0.00 0.05 0.05 92 1016.2
20260505080256 25 88 12.9 22.5 0.00 0.05 0.05 92 1016.1
20260505075752 25 95 16.1 20.9 0.00 0.05 0.05 92 1016.1
20260505075249 25 92 14.5 20.9 0.00 0.05 0.05 92 1016.1
20260505074747 25 98 16.1 17.7 0.00 0.05 0.05 92 1016.1
20260505074244 25 88 14.5 17.7 0.00 0.05 0.05 92 1016.2
20260505073741 25 98 14.5 17.7 0.00 0.05 0.05 92 1015.9
20260505073239 25 87 16.1 17.7 0.00 0.05 0.05 92 1015.9
20260505072735 25 93 16.1 16.1 0.00 0.05 0.05 92 1016.1
20260505072231 25 86 16.1 20.9 0.00 0.05 0.05 92 1016.2
20260505071727 25 106 14.5 20.9 0.00 0.05 0.05 92 1015.9
20260505071224 25 109 16.1 17.7 0.00 0.05 0.05 92 1015.8
20260505070722 25 97 17.7 20.9 0.00 0.05 0.05 92 1016.1
20260505070218 25 90 16.1 20.9 0.00 0.05 0.05 92 1015.9
20260505065714 25 96 17.7 20.9 0.00 0.05 0.05 92 1016.1
20260505065211 25 113 19.3 20.9 0.00 0.05 0.05 92 1016.2
20260505064708 25 86 14.5 17.7 0.00 0.05 0.05 92 1016.3
20260505064206 25 96 14.5 22.5 0.00 0.05 0.05 92 1016.3
20260505063703 25 95 14.5 17.7 0.00 0.05 0.05 92 1016.4
20260505063159 25 111 12.9 20.9 0.00 0.05 0.05 92 1016.3
20260505062655 24 101 12.9 16.1 0.00 0.05 0.05 92 1016.3
20260505062153 24 106 14.5 17.7 0.00 0.05 0.05 92 1016.3
20260505061650 24 90 12.9 14.5 0.00 0.05 0.05 92 1016.4
20260505061148 24 104 9.7 12.9 0.00 0.05 0.05 92 1016.4
20260505060645 24 83 14.5 17.7 0.00 0.05 0.05 92 1016.5
20260505060142 25 107 14.5 20.9 0.00 0.05 0.05 92 1016.5
20260505055637 25 85 14.5 16.1 0.00 0.05 0.05 93 1016.7
20260505055134 24 94 12.9 16.1 0.00 0.05 0.05 93 1016.7
20260505054632 25 97 14.5 17.7 0.00 0.05 0.05 93 1016.8
20260505054129 25 84 14.5 17.7 0.00 0.05 0.05 93 1016.6
20260505053626 25 93 16.1 17.7 0.00 0.05 0.05 93 1016.8
20260505053123 25 87 16.1 17.7 0.00 0.05 0.05 93 1017.1
20260505052620 25 80 17.7 17.7 0.00 0.05 0.05 93 1017.0
20260505052117 24 96 19.3 22.5 0.00 0.05 0.05 93 1017.0
20260505051614 24 96 14.5 16.1 0.00 0.05 0.05 93 1017.2
20260505051112 25 92 9.7 14.5 0.00 0.05 0.05 93 1017.1
20260505050610 25 90 12.9 20.9 0.00 0.05 0.05 92 1017.5
20260505050108 24 109 17.7 22.5 0.00 0.05 0.05 93 1017.2
20260505041537 25 84 16.1 17.7 0.00 0.05 0.05 93 1017.5
20260505041035 25 114 9.7 14.5 0.30 0.05 0.05 93 1017.7
20260505040532 25 92 9.7 14.5 0.48 0.05 0.05 92 1017.8
20260505040029 25 95 14.5 16.1 0.18 0.05 0.05 92 1017.7
20260505035525 25 98 14.5 17.7 0.00 0.03 0.03 92 1017.8
20260505035022 25 86 16.1 17.7 0.00 0.03 0.03 92 1017.7
20260505034518 25 83 14.5 17.7 0.00 0.03 0.03 92 1017.8
20260505034016 25 99 16.1 20.9 0.00 0.03 0.03 92 1018.1
20260505033513 25 76 16.1 17.7 0.00 0.03 0.03 92 1018.0
20260505033011 25 93 16.1 20.9 0.00 0.03 0.03 93 1017.9
20260505032508 25 99 12.9 17.7 0.00 0.03 0.03 93 1018.0
20260505032004 25 91 14.5 16.1 0.00 0.03 0.03 93 1018.0
20260505031501 25 99 16.1 24.1 0.00 0.03 0.03 93 1017.8
20260505030958 25 73 12.9 22.5 0.00 0.03 0.03 93 1017.9
20260505030454 25 94 17.7 17.7 0.00 0.03 0.03 93 1017.7
20260505025949 25 115 17.7 17.7 0.00 0.03 0.03 93 1017.9
20260505025447 25 80 14.5 17.7 0.00 0.03 0.03 93 1017.9
20260505024946 25 82 16.1 20.9 0.00 0.03 0.03 93 1017.9
20260505024443 25 90 16.1 20.9 0.00 0.03 0.03 93 1018.0
20260505023940 25 87 14.5 20.9 0.00 0.03 0.03 93 1017.9
20260505023437 25 99 14.5 16.1 0.00 0.03 0.03 93 1017.9
20260505022934 25 99 16.1 17.7 0.00 0.03 0.03 93 1017.8
20260505022432 25 91 14.5 22.5 0.00 0.03 0.03 92 1017.9
20260505021928 25 94 17.7 24.1 0.00 0.03 0.03 92 1017.8
20260505021425 25 90 19.3 24.1 0.00 0.03 0.03 92 1017.9
20260505020920 25 76 16.1 20.9 0.00 0.03 0.03 92 1017.9
20260505020416 25 90 16.1 20.9 0.00 0.03 0.03 92 1017.9
20260505015913 25 84 17.7 20.9 0.00 0.03 0.03 92 1017.6
20260505015411 25 101 14.5 17.7 0.00 0.03 0.03 92 1017.8
20260505014908 25 92 14.5 20.9 0.00 0.03 0.03 92 1017.9
20260505014404 25 84 16.1 20.9 0.00 0.03 0.03 92 1017.6
20260505013901 25 93 16.1 24.1 0.00 0.03 0.03 92 1017.6
20260505013358 25 101 12.9 16.1 0.00 0.03 0.03 92 1017.9
20260505012856 25 97 14.5 16.1 0.00 0.03 0.03 92 1017.7
20260505012354 25 98 11.3 14.5 0.00 0.03 0.03 92 1017.6
20260505011850 25 83 14.5 17.7 0.00 0.03 0.03 92 1017.6
20260505011347 25 89 11.3 17.7 0.00 0.03 0.03 92 1017.4
20260505010843 25 107 16.1 24.1 0.00 0.03 0.03 92 1017.3
20260505010339 25 93 14.5 17.7 0.00 0.03 0.03 92 1017.2
20260505005835 25 95 17.7 20.9 0.00 0.03 0.03 92 1017.1
20260505005332 25 102 17.7 17.7 0.00 0.03 0.03 92 1017.4
20260505004830 25 87 17.7 22.5 0.00 0.03 0.03 92 1017.2
20260505004326 25 95 17.7 25.7 0.00 0.03 0.03 92 1017.3
20260505003824 25 110 12.9 14.5 0.00 0.03 0.03 91 1017.1
20260505003321 25 98 14.5 17.7 0.13 0.03 0.03 91 1017.2
20260505002816 25 92 11.3 17.7 0.13 0.03 0.03 90 1017.1
20260505002314 25 101 12.9 17.7 0.00 0.00 0.00 90 1017.0
20260505001812 25 98 12.9 16.1 0.00 0.00 0.00 91 1017.1
20260505001309 25 97 11.3 12.9 0.00 0.00 0.00 91 1017.1
20260505000806 25 101 11.3 12.9 0.00 0.00 0.00 90 1017.1
20260505000304 25 98 9.7 12.9 0.00 0.00 0.00 90 1016.9
20260504235800 25 87 14.5 16.1 0.00 0.00 0.00 90 1017.0
20260504235256 25 75 9.7 16.1 0.00 0.00 0.00 90 1016.8
20260504234754 25 102 12.9 17.7 0.00 0.00 0.00 90 1017.0
20260504234251 25 90 12.9 17.7 0.00 0.00 0.00 89 1016.9
20260504233747 25 90 16.1 17.7 0.00 0.00 0.00 89 1016.9
20260504233243 25 88 11.3 12.9 0.00 0.00 0.00 89 1016.8
20260504232740 25 95 14.5 16.1 0.00 0.00 0.00 88 1016.7
20260504232237 25 105 11.3 14.5 0.00 0.00 0.00 88 1016.5
20260504231734 25 105 9.7 14.5 0.00 0.00 0.00 88 1016.3
20260504231230 25 107 11.3 16.1 0.00 0.00 0.00 87 1016.5
20260504230726 25 63 14.5 17.7 0.00 0.00 0.00 87 1016.5
20260504230225 25 108 11.3 16.1 0.00 0.00 0.00 87 1016.3
20260504225724 25 88 11.3 14.5 0.00 0.00 0.00 87 1016.6
20260504225219 25 108 12.9 16.1 0.00 0.00 0.00 86 1016.5
20260504224717 26 88 9.7 17.7 0.00 0.00 0.00 86 1016.3
20260504224214 26 86 14.5 17.7 0.00 0.00 0.00 86 1016.1
20260504223710 26 113 17.7 20.9 0.00 0.00 0.00 86 1016.3
20260504223206 26 93 16.1 20.9 0.00 0.00 0.00 85 1016.1
20260504222703 26 108 16.1 24.1 0.00 0.00 0.00 85 1015.9
20260504222200 26 108 19.3 22.5 0.00 0.00 0.00 85 1015.8
20260504221657 26 122 19.3 27.4 0.00 0.00 0.00 85 1015.7
20260504221154 26 93 19.3 24.1 0.00 0.00 0.00 84 1015.8
20260504220650 26 100 12.9 29.0 0.00 0.00 0.00 84 1015.8
20260504220148 26 107 19.3 22.5 0.00 0.00 0.00 84 1015.7
20260504215644 26 117 16.1 20.9 0.00 0.00 0.00 83 1015.8
20260504215142 27 73 25.7 29.0 0.00 0.00 0.00 83 1015.5
20260504214637 27 130 17.7 24.1 0.00 0.00 0.00 83 1016.2
20260504214134 27 107 12.9 16.1 0.00 0.00 0.00 82 1015.6
20260504213631 26 102 22.5 25.7 0.00 0.00 0.00 83 1015.5
20260504213127 26 80 24.1 27.4 0.00 0.00 0.00 83 1015.5
20260504212624 26 118 16.1 25.7 0.00 0.00 0.00 83 1015.7
20260504212121 27 96 24.1 29.0 0.00 0.00 0.00 82 1015.3
20260504211618 27 89 14.5 30.6 0.00 0.00 0.00 83 1015.4
20260504211114 27 99 22.5 25.7 0.00 0.00 0.00 81 1015.4
20260504210612 27 88 17.7 29.0 0.00 0.00 0.00 80 1015.6
20260504210108 27 96 20.9 29.0 0.00 0.00 0.00 80 1015.5
20260504205606 27 94 19.3 33.8 0.00 0.00 0.00 80 1015.3
20260504205104 27 100 19.3 22.5 0.00 0.00 0.00 80 1015.5
20260504204601 27 100 19.3 22.5 0.00 0.00 0.00 80 1015.4
20260504204100 27 101 19.3 24.1 0.00 0.00 0.00 81 1015.3
20260504203558 27 107 20.9 29.0 0.00 0.00 0.00 81 1015.4
20260504203056 27 100 27.4 33.8 0.00 0.00 0.00 79 1015.4
20260504202550 27 124 19.3 24.1 0.00 0.00 0.00 80 1015.3
20260504202048 27 112 16.1 24.1 0.00 0.00 0.00 79 1015.3
20260504201544 27 113 24.1 29.0 0.00 0.00 0.00 79 1015.2
20260504201038 27 123 17.7 24.1 0.00 0.00 0.00 78 1015.4
20260504200533 27 116 14.5 25.7 0.00 0.00 0.00 79 1015.2
20260504200031 27 99 22.5 27.4 0.00 0.00 0.00 78 1015.3
20260504195526 27 110 22.5 27.4 0.00 0.00 0.00 79 1015.4
20260504195023 28 109 20.9 33.8 0.00 0.00 0.00 78 1015.3
20260504194520 27 103 27.4 33.8 0.00 0.00 0.00 79 1015.5
20260504194015 27 96 27.4 35.4 0.00 0.00 0.00 79 1015.3
20260504193512 27 81 27.4 37.0 0.00 0.00 0.00 78 1015.4
20260504193011 27 112 27.4 30.6 0.00 0.00 0.00 78 1015.6
20260504192509 28 103 27.4 33.8 0.00 0.00 0.00 77 1015.3
20260504192007 27 98 25.7 33.8 0.00 0.00 0.00 77 1015.4
20260504191504 27 109 20.9 27.4 0.00 0.00 0.00 78 1015.6
20260504191000 28 122 22.5 33.8 0.00 0.00 0.00 77 1015.6
20260504190456 27 115 17.7 27.4 0.00 0.00 0.00 77 1015.7
20260504185952 27 89 27.4 38.6 0.00 0.00 0.00 78 1015.7
20260504185450 27 92 20.9 30.6 0.00 0.00 0.00 79 1015.6
20260504184946 27 114 24.1 27.4 0.00 0.00 0.00 78 1015.9
20260504184442 27 133 20.9 25.7 0.00 0.00 0.00 78 1016.2
20260504183937 27 107 30.6 37.0 0.00 0.00 0.00 77 1016.1
20260504183435 28 105 16.1 22.5 0.00 0.00 0.00 76 1015.8
20260504182933 27 131 24.1 27.4 0.00 0.00 0.00 78 1016.1
20260504182429 28 111 11.3 27.4 0.00 0.00 0.00 75 1016.1
20260504181927 28 111 14.5 38.6 0.00 0.00 0.00 76 1016.2
20260504181424 28 126 22.5 25.7 0.00 0.00 0.00 75 1016.1
20260504180922 28 136 29.0 38.6 0.00 0.00 0.00 76 1016.3
20260504180421 28 91 17.7 27.4 0.00 0.00 0.00 76 1016.4
20260504175919 28 80 20.9 30.6 0.00 0.00 0.00 75 1016.3
20260504175415 27 105 24.1 29.0 0.00 0.00 0.00 76 1016.7
20260504174913 28 123 20.9 29.0 0.00 0.00 0.00 75 1016.7
20260504174410 28 132 19.3 29.0 0.00 0.00 0.00 75 1016.9
20260504173908 28 117 9.7 24.1 0.00 0.00 0.00 74 1016.7
20260504173404 30 84 14.5 20.9 0.00 0.00 0.00 70 1016.8
20260504172901 28 125 14.5 24.1 0.00 0.00 0.00 72 1016.8
20260504172357 28 69 12.9 33.8 0.00 0.00 0.00 75 1016.8
20260504171853 28 120 19.3 22.5 0.00 0.00 0.00 74 1016.8
20260504171351 28 106 20.9 40.2 0.00 0.00 0.00 72 1016.6
20260504170848 28 98 24.1 35.4 0.00 0.00 0.00 74 1016.6
20260504170344 28 133 24.1 30.6 0.00 0.00 0.00 74 1017.0
20260504160303 27 99 20.9 29.0 0.00 0.00 0.00 76 1017.6
20260504150728 28 100 20.9 30.6 0.00 0.00 0.00 72 1017.8
20260504150225 28 115 27.4 40.2 0.00 0.00 0.00 73 1017.8
20260504141154 27 111 17.7 22.5 0.00 0.00 0.00 77 1017.9
20260504140651 27 109 24.1 35.4 0.00 0.00 0.00 78 1017.8
20260504140147 27 101 17.7 29.0 0.00 0.00 0.00 77 1018.0
20260504130615 28 115 14.5 22.5 0.00 0.00 0.00 75 1017.9
20260504130112 27 117 17.7 29.0 0.00 0.00 0.00 76 1018.0